SL-16 DEB, 39891

Orbit data source: Space-Track

SL-16 DEB, 39891 is space debris in LEO originally from a launch on Fri, 26 Mar 1993 UTC launched from the Tyuratam Missile And Space Complex (TTMTR). Debris objects in space refer to the collection of defunct objects orbiting the Earth. Examples of debris include non-operational satellites, rocket bodies, and fragments generated from explosions, collisions, or faulty payload assembly.

Loading next visibility...
Identifier
39891, 1993-016BR
Orbit
LEO
Country
Flag of CISCIS
Related business
Manufacturer
Unknown
Mission
Spacecraft
Bus & Motor
Unknown
Mass
Unknown
Launch date (UTC)
1993-03-26 (33 years ago)
Launch vehicle
Unknown
Launch site
Tyuratam Missile And Space Complex (TTMTR)
Object type
Payload
Rocket body
Debris
Shape & HBR
Unknown shape, 0.1 m
Radar Cross Section
Small (<0.1 m²)

Expand to show TLE details & history
Last TLE update: 3 days ago

TLE from 3 days ago
0 SL-16 DEB
1 39891U 93016BR  25287.06468561  .00003957  00000-0  11890-2 0  9994
2 39891  70.9995  43.4085 0011287 242.7309 117.2680 14.43234160594709
Epoch: 2025-10-14T01:33Z
TLE epoch observation values (Epoch: 2025-10-14T01:33:08.836Z)
Latitude
0.00003°
Longitude
-2.73678°
Altitude
753.957 km
Speed
7.476 km/s
True Right ascension
02h 53m 38s
True Declination
0° 00' 00"
Sunlit
Object was in full shadow at epoch
Visualization orbit readout
Latitude
Unknown
Longitude
Unknown
Altitude
Unknown
Speed
Unknown
Apparent Right ascension
Unknown
Apparent Declination
Unknown
Sunlit
N/A
Visualization observer readout
Local Sidereal Time
08:58:14
Azimuth
Unknown
Elevation
Unknown
Doppler factor
Unknown
Orbital elements
Apogee altitude
753.771 km
Perigee altitude
737.689 km
Semi-major axis
7,123.867 km
Eccentricity
0.00113
Inclination
70.9995°
RAAN
43.4085°
Arg. of periapsis
242.7309°
True anomaly
117.38289°
Mean anomaly
117.268°
Eccentric anomaly
117.32545°
Mean motion
3.60969 °/min
Orbital period
99.73 mins
BSTAR
0.001189
Loading maneuver chart data...
Computing Atmospheric mass density...
Loading historical data...
Loading historical data...
Loading historical data...
Loading historical data...
Loading historical data...
Loading historical data...
Loading historical data...

Documentation

Showing up to 5 results
|